Погода в Вязьме

Поиск расширенной информации на нашем сайте:

Полезная информация:

Новости сайта



02.01.2020
Опубликован Долгосрочный прогноз погоды по городам России и ближнего зарубежья на январь 2020 года.
Карты: Прогноз на январь и февраль 2020 года, Сравнение прогнозируемой аномалии приземной температуры воздуха на январь 2020 года по разным моделям.




Погода в Вязьме - сегодня

Время (UTC), дата Ветер
(°,м/с) 
Видим.   Явления Облачность Т
(°С)
Тd
(°С)
f(%) Тe
(°С)
Pmin
(гПа)
dP
(гПа)
Po
(мм)
O2
(г/м3)
Тmin Tmax R s Состояние
почвы
09 16.01.21 340 (С) 4000 м  слаб. снег  10/0 средняя 
[As op]
-15.8 -18.3 81 -20  1010.6  0.7  734  315           
12 16.01.21 300 (СЗ) 4000 м  слаб. снег  10/8 300 м средняя 
[Frnb|As op]
-14.9 -17.4 81 -19  1009.9  -0.5  733  314           
15 16.01.21 310 (СЗ) 4000 м  слаб. снег  10/8 300 м средняя 
[Frnb|As op]
-14.4 -16.5 84 -18  1009.9  0.1  733  313         
18 16.01.21 310 (СЗ) 4000 м  слаб. снег  10/8 300 м средняя 
[Frnb|As op]
-14.5 -16.6 84 -18  1010.4  0.4  734  313    -14.3     
21 16.01.21 330 (СЗ) 4000 м  слаб. снег  10/8 300 м средняя 
[Frnb|As op]
-15.7 -18.2 81 -19  1011.5  0.9  734  315           
00 17.01.21 330 (СЗ) 4000 м  слаб. снег  10/8 300 м средняя 
[Frnb|As op]
-17.7 -20.6 78 -23  1012.7  0.9  735  318           
03 17.01.21 340 (С) 10 км  {снег}  10/10 300 м 
[Sc]
-19.6 -22.1 80 -24  1013.9  736  321  -19.6       
06 17.01.21 340 (С) 10 км  {снег}  3/0 средняя 
[Ac trans]
-21.4 -23.7 82 -24  1015.7  1.5  737  324  -21.4    36  неравномерный
сухой снег
100% 
09 17.01.21 350 (С) 10 км    1/0 верхняя 
[Ci fib]
-19.8 -22.8 77 -23  1016.9  1.4  738  322           
12 17.01.21 350 (С) 10 км    6/0 средняя 
[Ac trans]
-18.4 -21.5 77 -23  1017.2  0.4  738  320           
15 17.01.21 360 (С) 10 км    6/0 средняя 
[Ac trans]
-20.2 -22.6 81 -23  1018.7  1.2  739  323           
18 17.01.21 360 (С) 10 км    6/0 верхняя 
[Ci fib]
-21.5 -23.7 82 -22  1019.5  0.6  739  325    -18.4       
21 17.01.21 330 (СЗ) 10 км    4/0 верхняя 
[Ci fib]
-24.6 -27.3 78 -25  1020.5  0.6  740  329           
00 18.01.21 340 (С) 10 км    6/0 верхняя 
[Ci fib]
-25.5 -28.4 77 -26  1021.1  0.5  740  331           
03 18.01.21 тихо ()   10 км    3/0 верхняя 
[Ci fib]
-27.5 -30.6 75 -28  1022  0.6  741  334  -27.8         
06 18.01.21 290 (З) 10 км    8/0 верхняя 
[Ci fib]
-27.1 -30.2 75 -28  1021.6  -0.4  740  333  -27.9      36  неравномерный
сухой снег
100% 
09 18.01.21 тихо ()   10 км    8/0 верхняя 
[Cc]
-20.7 -23 82 -21  1021.3  0.6  741  325           
12 18.01.21 270 (З) 10 км    8/0 верхняя 
[Cc]
-18.7 -21 82 -19  1020.6  -0.5  740  322           
15 18.01.21 210 (ЮЗ) 10 км    9/0 средняя, верхняя 
[Ac trans|Ci fib]
-19.3 -21.4 83 -20  1020.5  0.1  740  323           
18 18.01.21 тихо ()   10 км    10/0 средняя 
[As trans]
-19 -21.2 83 -19  1020.2  -0.2  740  322    -18.4       
21 18.01.21 270 (З) 10 км    10/0 средняя 
[Ac und]
-18.2 -20.3 84 -18  1020.4  0.2  740  321           
00 19.01.21 250 (З) 10 км    9/0 верхняя 
[Ci fib]
-18.1 -20.1 84 -18  1019.5  -0.8  740  321           
03 19.01.21 250 (З) 10 км    10/0 верхняя 
[Cs]
-18.3 -20.3 84 -19  1019.4  0.1  740  321  -19.7         
06 19.01.21 280 (З) 10 км    10/0 средняя 
[Ac und]
-17.9 -19.9 84 -18  1019.2  -0.2  740  320  -19.4      36  неравномерный
сухой снег
100% 
09 19.01.21 310 (СЗ) 10 км    10/0 средняя 
[Ac und]
-14.8 -16.6 86 -15  1019.2  0.4  740  317           
Время (UTC), дата Ветер
(°,м/с) 
Видим.   Явления Облачность Т
(°С)
Тd
(°С)
f(%) Тe
(°С)
Pmin
(гПа)
dP
(гПа)
Po
(мм)
O2
(г/м3)
Тmin Tmax R s Состояние
почвы

Для получения пояснительной информации подведите курсор к названию столбца.

ПОГОДА в Вязьме - архив

Всё, что Вы хотите узнать о погоде в Вязьме - удобно и подробно!

Выберите нужную дату (начиная с 1 января 2019* года) и нажмите кнопку "Найти".
Будут отображены архивные сводки погоды по пункту Вязьма, начиная с указанной даты.


Отображать данные в формате CSV (для использования в таблицах Excel)


Внимание! Наш архив погоды предназначен исключительно для личного некоммерческого использования в познавательных целях. Если Вам необходимы официальные справки о состоянии погоды (для производственных, юридических, коммерческих и т.п. целей), обращайтесь в органы Росгидромета.

*Примечание: данная дата относится к архиву по метеостанциям СССР (Россия, СНГ, Балтия).
Архив по метеостанциям Зарубежной Европы и Азии (кроме Китая) хранится 10 дней, по другим регионам земного шара (Китай, Африка, Америка, Австралия, Океания) - 1 день.

Вязьма - район местоположения метеостанции


Название, широта, долгота, высота метеостанции:
Вязьма 55.2°ш. 34.4°д. 251 м над ур. моря [Российская Федерация]

Дополнительная информация

В oтличие oт бoльшинства пoгoдных сайтoв мы публикуем пoдрoбную метеoинфoрмацию в детальнoм прoфессиoнальнoм фoрмате.

Характеристики температуры и влажнoсти вoздуха измеряются на высoте 2 м в тени вдали oт зданий и деревьев.
Скoрoсть ветра измеряется на высoте 10 м (на урoвне рoста челoвека скoрoсть ветра ниже в 1.5-2 раза). Если метеoстанция нахoдится в гoрoде или в лесу, тo скoрoсть ветра занижена на 2-4 м/с пo сравнению с oткрытым местoм. Скoрoсть ветра над акватoриями крупных рек и oзёр, а также на вершинах хoлмoв на 2-5 м/с выше, чем в oбычных услoвиях.
Атмoсфернoе давление в разных тoчках местнoсти мoжет значительнo oтличаться oт давления на метеoстанции, в зависимoсти oт услoвий рельефа (при пoдъёме на 10 м давление пoнижается примернo на 1 мм рт.ст.).